User: anonymous   Login
Location: ?????????
(38.0736°N, 23.2119°E)
Time: 10:32:06
(UTC+00:00)
Language:

Iridium 4 Rocket - Orbit

View from above orbital plane
View from above orbital plane
View from above satellite
View from above satellite

Ground track
Ground track

The orbit data is extracted from the following two-line orbital elements,

1 24797U 97020F   25110.31234929  .00001336  00000-0  26511-3 0  9990
2 24797  86.8997  23.3244 0218481 117.4797   1.8212 14.47202266471411
Epoch (UTC): 20 April 2025 07:29:46
Eccentricity: 0.0218481
inclination: 86.8997°
perigee height: 579 km
apogee height: 890 km
right ascension of ascending node: 23.3244°
argument of perigee: 117.4797°
revolutions per day: 14.47202266
mean anomaly at epoch: 1.8212°
orbit number at epoch: 47141

The dashed part of the orbit path shows where the satellite is in the earth's shadow,  

DLR